When you browse on this site, cookies collect data to enhance your experience and personalize the content and advertising you see.
Visit our Privacy Policy to learn more. By continuing to use the site, you agree to this use of cookies and data.
  • In Hungary
  • List of Countries
  • For 7 days
  • Water Temperature
  • Satellite Maps
  • Weather Map
  • News
  • Weather Widgets
  • user-avatar
    Login

    Hourly Weather Levittown

    Today, 16 February, Saturday

    Time Temperature Precipitation Wind Pressure Humidity
    00:00 +5°C° 0 mm 6 mps 752 mmHg 61%
    01:00 +6°C° 0 mm 5 mps 752 mmHg 58%
    02:00 +5°C° 0 mm 5 mps 753 mmHg 55%
    03:00 +3°C° 0 mm 6 mps 753 mmHg 52%
    04:00 +1°C° 0 mm 6 mps 754 mmHg 50%
    05:00 +1°C° 0 mm 6 mps 754 mmHg 50%
    06:00 -1°C° 0 mm 6 mps 755 mmHg 51%
    07:00 0°C° 0 mm 5 mps 755 mmHg 52%
    08:00 0°C° 0 mm 5 mps 755 mmHg 50%
    09:00 0°C° 0 mm 5 mps 756 mmHg 48%
    10:00 0°C° 0 mm 5 mps 756 mmHg 47%
    11:00 +1°C° 0 mm 4 mps 756 mmHg 45%
    12:00 +3°C° 0 mm 4 mps 756 mmHg 43%
    13:00 +4°C° 0 mm 4 mps 756 mmHg 41%
    14:00 +4°C° 0 mm 4 mps 756 mmHg 42%
    15:00 +4°C° 0 mm 4 mps 756 mmHg 43%
    16:00 +4°C° 0 mm 4 mps 756 mmHg 43%
    17:00 +4°C° 0 mm 4 mps 757 mmHg 46%
    18:00 +3°C° 0 mm 4 mps 757 mmHg 49%
    19:00 +1°C° 0 mm 4 mps 758 mmHg 52%
    20:00 +1°C° 0 mm 4 mps 758 mmHg 53%
    21:00 0°C° 0 mm 4 mps 759 mmHg 54%
    22:00 -1°C° 0 mm 4 mps 759 mmHg 55%
    23:00 -1°C° 0 mm 4 mps 760 mmHg 55%

    Tomorrow, 17 February, Sunday

    Time Temperature Precipitation Wind Pressure Humidity
    00:00 -2°C° 0 mm 4 mps 760 mmHg 55%
    01:00 -3°C° 0 mm 4 mps 760 mmHg 54%
    02:00 -4°C° 0 mm 5 mps 760 mmHg 54%
    03:00 -4°C° 0 mm 5 mps 760 mmHg 54%
    04:00 -4°C° 0 mm 5 mps 761 mmHg 54%
    05:00 -3°C° 0 mm 4 mps 761 mmHg 54%
    06:00 -4°C° 0 mm 4 mps 761 mmHg 53%
    07:00 -4°C° 0 mm 3 mps 762 mmHg 53%
    08:00 -2°C° 0 mm 3 mps 762 mmHg 49%
    09:00 -1°C° 0 mm 2 mps 762 mmHg 46%
    10:00 +1°C° 0 mm 1 mps 763 mmHg 42%
    11:00 +2°C° 0 mm 1 mps 762 mmHg 39%
    12:00 +3°C° 0 mm 1 mps 762 mmHg 36%
    13:00 +4°C° 0 mm 1 mps 762 mmHg 32%
    14:00 +4°C° 0 mm 1 mps 762 mmHg 33%
    15:00 +3°C° 0 mm 2 mps 761 mmHg 34%
    16:00 +3°C° 0 mm 2 mps 761 mmHg 34%
    17:00 +2°C° 0 mm 2 mps 761 mmHg 40%
    18:00 +1°C° 0 mm 3 mps 760 mmHg 46%
    19:00 +1°C° 0 mm 3 mps 760 mmHg 52%
    20:00 +1°C° 0.3 mm 3 mps 760 mmHg 59%
    21:00 +1°C° 0.3 mm 3 mps 760 mmHg 66%
    22:00 +1°C° 0.3 mm 3 mps 759 mmHg 72%
    23:00 0°C° 0.9 mm 4 mps 759 mmHg 79%

    Day after tomorrow, 18 February, Monday

    Time Temperature Precipitation Wind Pressure Humidity
    00:00 0°C° 0.9 mm 4 mps 758 mmHg 85%
    01:00 0°C° 0.9 mm 4 mps 758 mmHg 92%
    02:00 0°C° 1 mm 4 mps 757 mmHg 93%
    03:00 0°C° 1 mm 4 mps 756 mmHg 95%
    04:00 0°C° 1 mm 5 mps 755 mmHg 96%
    05:00 0°C° 0.7 mm 4 mps 755 mmHg 96%
    06:00 0°C° 0.7 mm 4 mps 754 mmHg 96%
    07:00 0°C° 0.7 mm 4 mps 754 mmHg 96%
    08:00 0°C° 0.1 mm 4 mps 754 mmHg 95%
    09:00 +2°C° 0.1 mm 3 mps 754 mmHg 94%
    10:00 +2°C° 0.1 mm 3 mps 754 mmHg 94%
    11:00 +3°C° 0.1 mm 2 mps 754 mmHg 91%
    12:00 +3°C° 0.1 mm 2 mps 754 mmHg 89%
    13:00 +5°C° 0.1 mm 1 mps 754 mmHg 87%
    14:00 +4°C° 0.1 mm 2 mps 755 mmHg 85%
    15:00 +3°C° 0.1 mm 3 mps 756 mmHg 84%
    16:00 +4°C° 0.1 mm 3 mps 756 mmHg 82%
    17:00 +2°C° 0 mm 5 mps 758 mmHg 78%
    18:00 +1°C° 0 mm 6 mps 759 mmHg 73%
    19:00 0°C° 0 mm 7 mps 761 mmHg 69%
    20:00 -2°C° 0 mm 7 mps 762 mmHg 66%
    21:00 -3°C° 0 mm 7 mps 763 mmHg 63%
    22:00 -5°C° 0 mm 8 mps 764 mmHg 60%
    23:00 -4°C° 0 mm 7 mps 765 mmHg 58%

    19 February, Tuesday

    Time Temperature Precipitation Wind Pressure Humidity
    00:00 -6°C° 0 mm 7 mps 765 mmHg 56%
    01:00 -7°C° 0 mm 7 mps 766 mmHg 53%
    02:00 -7°C° 0 mm 7 mps 767 mmHg 51%
    03:00 -6°C° 0 mm 6 mps 767 mmHg 49%
    04:00 -6°C° 0 mm 6 mps 768 mmHg 47%
    05:00 -8°C° 0 mm 6 mps 768 mmHg 48%
    06:00 -7°C° 0 mm 5 mps 769 mmHg 48%
    07:00 -7°C° 0 mm 5 mps 770 mmHg 49%
    08:00 -6°C° 0 mm 5 mps 770 mmHg 48%
    09:00 -5°C° 0 mm 4 mps 771 mmHg 46%
    10:00 -4°C° 0 mm 4 mps 772 mmHg 44%
    11:00 -3°C° 0 mm 4 mps 771 mmHg 43%
    12:00 -3°C° 0 mm 4 mps 771 mmHg 41%
    13:00 -2°C° 0 mm 5 mps 771 mmHg 39%
    14:00 -2°C° 0 mm 5 mps 771 mmHg 39%
    15:00 -1°C° 0 mm 5 mps 771 mmHg 38%
    16:00 -1°C° 0 mm 5 mps 771 mmHg 38%
    17:00 -2°C° 0 mm 5 mps 771 mmHg 40%
    18:00 -2°C° 0 mm 5 mps 772 mmHg 42%
    19:00 -4°C° 0 mm 5 mps 772 mmHg 44%
    20:00 -3°C° 0 mm 4 mps 772 mmHg 46%
    21:00 -4°C° 0 mm 4 mps 772 mmHg 47%
    22:00 -4°C° 0 mm 4 mps 772 mmHg 49%
    23:00 -4°C° 0 mm 3 mps 773 mmHg 49%

    20 February, Wednesday

    Time Temperature Precipitation Wind Pressure Humidity
    00:00 -4°C° 0 mm 3 mps 773 mmHg 50%
    01:00 -4°C° 0 mm 2 mps 773 mmHg 50%
    02:00 -3°C° 0 mm 2 mps 773 mmHg 49%
    03:00 -1°C° 0 mm 1 mps 773 mmHg 49%
    04:00 -1°C° 0 mm 1 mps 773 mmHg 48%
    05:00 -1°C° 0 mm 1 mps 773 mmHg 48%
    06:00 -3°C° 0 mm 2 mps 773 mmHg 49%
    07:00 -3°C° 0 mm 2 mps 773 mmHg 49%
    08:00 -3°C° 0 mm 2 mps 773 mmHg 50%
    09:00 -3°C° 0 mm 2 mps 773 mmHg 51%
    10:00 -4°C° 0 mm 3 mps 773 mmHg 52%
    11:00 -2°C° 0 mm 3 mps 772 mmHg 54%
    12:00 -2°C° 0 mm 3 mps 771 mmHg 57%
    13:00 -2°C° 0 mm 3 mps 771 mmHg 60%
    14:00 -3°C° 0.2 mm 4 mps 770 mmHg 64%
    15:00 -3°C° 0.2 mm 4 mps 770 mmHg 68%
    16:00 -3°C° 0.2 mm 4 mps 769 mmHg 72%
    17:00 -3°C° 0.3 mm 4 mps 769 mmHg 76%
    18:00 -4°C° 0.3 mm 5 mps 768 mmHg 80%
    19:00 -2°C° 0.3 mm 5 mps 768 mmHg 84%
    20:00 -2°C° 0.2 mm 5 mps 767 mmHg 86%
    21:00 -1°C° 0.2 mm 5 mps 766 mmHg 89%
    22:00 -2°C° 0.2 mm 6 mps 765 mmHg 91%
    23:00 0°C° 0.2 mm 5 mps 764 mmHg 92%

    21 February, Thursday

    Time Temperature Precipitation Wind Pressure Humidity
    00:00 0°C° 0.2 mm 4 mps 763 mmHg 94%
    01:00 +1°C° 0.2 mm 4 mps 762 mmHg 96%
    02:00 +2°C° 0.2 mm 3 mps 761 mmHg 97%
    03:00 +2°C° 0.2 mm 3 mps 760 mmHg 97%
    04:00 +3°C° 0.2 mm 2 mps 759 mmHg 98%
    05:00 +3°C° 0.3 mm 2 mps 759 mmHg 98%
    06:00 +3°C° 0.3 mm 2 mps 758 mmHg 98%
    07:00 +4°C° 0.3 mm 1 mps 758 mmHg 98%
    08:00 +3°C° 0.3 mm 2 mps 758 mmHg 98%
    09:00 +4°C° 0.3 mm 2 mps 758 mmHg 98%
    10:00 +4°C° 0.3 mm 2 mps 758 mmHg 97%
    11:00 +5°C° 0 mm 3 mps 758 mmHg 89%
    12:00 +7°C° 0 mm 3 mps 758 mmHg 81%
    13:00 +8°C° 0 mm 4 mps 758 mmHg 73%
    14:00 +8°C° 0 mm 4 mps 758 mmHg 69%
    15:00 +8°C° 0 mm 5 mps 758 mmHg 66%
    16:00 +9°C° 0 mm 6 mps 759 mmHg 62%
    17:00 +7°C° 0 mm 5 mps 760 mmHg 63%
    18:00 +6°C° 0 mm 5 mps 761 mmHg 64%
    19:00 +5°C° 0 mm 5 mps 762 mmHg 65%
    20:00 +3°C° 0 mm 5 mps 762 mmHg 64%
    21:00 +3°C° 0 mm 5 mps 763 mmHg 63%
    22:00 +2°C° 0 mm 5 mps 763 mmHg 62%
    23:00 +3°C° 0 mm 4 mps 764 mmHg 63%
    Show more